Stations météo

réclame
Mon MeteoGroup
Cap Ferret, France (7500): Température de l'air & dewpoint: 09.12.2018 12:00:00 - 15.12.2018 12:00:00 (CET)Cap Ferret, France (7500): Vitesse du vent & gusts: 09.12.2018 12:00:00 - 15.12.2018 12:00:00 (CET)Cap Ferret, France (7500): Direction du vent: 09.12.2018 12:00:00 - 15.12.2018 12:00:00 (CET)Cap Ferret, France (7500): reduced air pressure: 09.12.2018 12:00:00 - 15.12.2018 12:00:00 (CET)Cap Ferret, France (7500): visibility: 09.12.2018 12:00:00 - 15.12.2018 12:00:00 (CET)Cap Ferret, France (7500): Quantités de précipitations: 09.12.2018 12:00:00 - 15.12.2018 12:00:00 (CET)
Date & Time tt [°C] td [°C] ff [km/h] ff [knt] fx [km/h] fx [knt] dd ppp [hPa] vv [km] rr [mm]
15.12.2018 12:00:00 10,5 9,9 17 9 31 17 SSE 1018,7 - 0,4
15.12.2018 11:00:00 9,5 8,9 15 8 26 14 SSE 1019,5 - 0,0
15.12.2018 10:00:00 9,1 8,5 13 7 28 15 SE 1019,6 - 0,2
15.12.2018 09:00:00 8,5 7,9 12 7 25 14 SSE 1019,8 - 0,2
15.12.2018 08:00:00 8,2 7,6 14 8 29 15 SE 1019,6 - 0,0
15.12.2018 07:00:00 8,0 7,4 13 7 24 13 SE 1019,6 8 0,4
15.12.2018 06:00:00 7,6 6,8 12 7 22 12 SE 1020,2 - 0,0
15.12.2018 05:00:00 6,8 6,1 8 4 18 10 E 1020,9 - 0,0
15.12.2018 04:00:00 6,4 5,5 11 6 22 12 ESE 1021,2 10 0,0
15.12.2018 03:00:00 6,6 5,5 10 5 19 10 E 1021,8 - 0,0
15.12.2018 02:00:00 6,9 5,7 14 8 22 12 ESE 1021,8 - 0,0
15.12.2018 01:00:00 6,6 5,1 11 6 18 10 ESE 1022,5 10 0,0
15.12.2018 00:00:00 7,0 4,8 9 5 20 11 SE 1023,0 - 0,0
14.12.2018 23:00:00 7,3 5,1 10 6 19 10 ESE 1022,9 - 0,0
14.12.2018 22:00:00 6,2 5,0 6 3 10 5 ESE 1023,3 10 0,0
14.12.2018 21:00:00 5,5 4,0 6 3 10 6 ESE 1023,3 - 0,0
14.12.2018 20:00:00 6,1 4,3 5 3 11 6 E 1023,4 - 0,0
14.12.2018 19:00:00 6,7 4,7 3 2 7 4 NE 1022,9 8 0,0
14.12.2018 18:00:00 6,8 4,5 6 4 14 7 N 1023,1 - 0,0
14.12.2018 17:00:00 7,3 4,3 8 5 19 11 NE 1021,9 - 0,0
14.12.2018 16:00:00 7,9 4,7 11 6 23 12 N 1021,9 8 0,0
14.12.2018 15:00:00 8,6 5,2 11 6 24 13 N 1021,2 - 0,0
14.12.2018 14:00:00 9,0 5,4 13 7 27 15 NW 1020,9 - 0,0
14.12.2018 13:00:00 8,3 5,2 11 6 22 12 NW 1020,5 8 0,0
14.12.2018 12:00:00 7,7 6,0 15 8 23 12 NNW 1021,0 - 0,0
14.12.2018 11:00:00 7,5 6,8 7 4 18 10 N 1019,7 - 0,0
14.12.2018 10:00:00 7,2 6,6 8 4 23 13 N 1018,7 6 0,0
14.12.2018 09:00:00 7,8 7,2 10 5 31 17 N 1017,6 - 0,0
14.12.2018 08:00:00 8,7 8,2 16 8 26 14 NNW 1016,9 - 0,0
14.12.2018 07:00:00 8,0 7,6 6 3 16 9 N 1015,9 - 0,0
14.12.2018 06:00:00 8,0 7,6 8 4 15 8 NNE 1015,0 - 0,0
14.12.2018 05:00:00 7,9 7,5 8 5 13 7 NE 1014,8 - 0,0
14.12.2018 04:00:00 7,6 7,2 8 4 12 7 E 1014,1 - 0,0
14.12.2018 03:00:00 7,5 7,1 3 2 11 6 ENE 1014,0 - 0,0
14.12.2018 02:00:00 7,8 7,4 7 4 11 6 NE 1013,4 - 0,0
14.12.2018 01:00:00 8,0 7,6 6 3 13 7 NNE 1013,2 10 0,0
14.12.2018 00:00:00 8,2 7,8 6 3 10 5 NNE 1012,8 - 0,0
13.12.2018 23:00:00 8,1 7,7 0 0 15 8 N 1012,2 - 0,0
13.12.2018 22:00:00 8,0 7,6 12 7 18 10 NE 1011,5 8 0,0
13.12.2018 21:00:00 8,1 7,7 13 7 20 11 NE 1010,8 - 0,0
13.12.2018 20:00:00 8,1 7,7 12 6 21 11 NE 1010,1 - 0,0
13.12.2018 19:00:00 8,3 7,9 11 6 18 10 NE 1009,2 8 0,2
13.12.2018 18:00:00 8,4 8,0 9 5 17 9 NNE 1008,6 - 1,3
13.12.2018 17:00:00 8,4 8,0 11 6 29 15 NE 1007,4 - 1,8
13.12.2018 16:00:00 8,7 8,1 17 9 25 13 NE 1006,3 8 0,8
13.12.2018 15:00:00 8,9 8,3 15 8 21 11 ENE 1005,4 - 1,8
13.12.2018 14:00:00 8,8 8,2 9 5 19 10 ENE 1005,2 - 0,4
13.12.2018 13:00:00 8,6 8,0 11 6 23 12 E 1005,3 8 0,0
13.12.2018 12:00:00 8,3 7,7 11 6 19 10 E 1005,7 - 0,0
13.12.2018 11:00:00 8,0 7,4 12 6 22 12 E 1005,7 - 0,2
13.12.2018 10:00:00 7,8 7,0 12 7 22 12 ESE 1005,7 8 0,0
13.12.2018 09:00:00 7,6 6,8 12 7 33 18 E 1005,8 - 0,6
13.12.2018 08:00:00 7,5 6,6 14 8 31 17 E 1005,4 - 0,2
13.12.2018 07:00:00 7,6 6,7 16 8 31 17 ENE 1006,2 10 0,0
13.12.2018 06:00:00 7,4 6,5 15 8 39 21 E 1006,6 - 0,0
13.12.2018 05:00:00 7,8 6,6 18 10 36 19 E 1007,6 - 0,0
13.12.2018 04:00:00 8,0 6,6 18 10 36 20 ESE 1008,3 10 0,0
13.12.2018 03:00:00 8,1 6,4 16 9 30 16 ESE 1009,4 - 0,0
13.12.2018 02:00:00 8,5 6,5 11 6 22 12 E 1010,1 - 0,0
13.12.2018 01:00:00 9,6 7,2 14 8 27 15 ESE 1011,2 10 0,0
13.12.2018 00:00:00 9,7 7,3 14 8 24 13 ESE 1011,5 - 0,0
12.12.2018 23:00:00 9,5 7,6 12 7 22 12 ESE 1012,5 - 0,0
12.12.2018 22:00:00 9,4 8,2 12 6 19 10 ESE 1013,6 10 0,0
12.12.2018 21:00:00 8,4 7,0 6 3 10 6 ESE 1014,6 - 0,0
12.12.2018 20:00:00 7,9 6,0 5 3 9 5 SSW 1015,3 - 0,0
12.12.2018 19:00:00 8,4 6,4 6 4 11 6 WSW 1016,1 10 0,0
12.12.2018 18:00:00 8,7 5,4 8 4 13 7 W 1016,6 - 0,0
12.12.2018 17:00:00 11,4 6,7 11 6 22 12 W 1017,0 - 0,0
12.12.2018 16:00:00 12,5 7,6 19 10 22 12 W 1017,5 10 0,0
12.12.2018 15:00:00 12,9 8,2 12 7 25 13 W 1017,8 - 0,0
12.12.2018 14:00:00 14,3 7,8 16 9 31 17 NW 1018,5 - 0,0
12.12.2018 13:00:00 13,8 8,6 17 9 29 15 WNW 1019,3 10 0,0
12.12.2018 12:00:00 12,2 7,3 19 10 44 24 WNW 1020,0 - 0,0
12.12.2018 11:00:00 13,2 9,4 22 12 38 21 WNW 1020,3 - 0,0
12.12.2018 10:00:00 12,0 8,5 26 14 40 21 WNW 1020,1 15 0,0
12.12.2018 09:00:00 11,4 8,8 29 16 45 24 W 1020,2 - 0,0
12.12.2018 08:00:00 11,1 8,7 34 18 46 25 WNW 1020,2 - 0,0
12.12.2018 07:00:00 11,1 10,0 33 18 48 26 WNW 1019,9 10 0,0
12.12.2018 06:00:00 10,7 9,6 13 7 24 13 SSW 1019,7 - 0,2
12.12.2018 05:00:00 8,5 7,1 13 7 19 10 S 1019,8 - 0,0
12.12.2018 04:00:00 7,4 6,2 11 6 19 11 SSE 1020,6 10 0,0
12.12.2018 03:00:00 5,8 4,8 12 7 18 10 S 1020,9 - 0,0
12.12.2018 02:00:00 4,3 3,0 10 5 17 9 SE 1021,2 - 0,0
12.12.2018 01:00:00 4,4 2,7 9 5 15 8 SE 1021,4 10 0,0
12.12.2018 00:00:00 5,8 4,1 9 5 17 9 S 1021,7 - 0,0
11.12.2018 23:00:00 5,3 2,8 8 4 14 8 ESE 1021,5 - 0,0
11.12.2018 22:00:00 6,2 3,4 9 5 15 8 E 1021,5 10 0,0
11.12.2018 21:00:00 7,5 3,7 8 4 22 12 ESE 1021,7 - 0,0
11.12.2018 20:00:00 8,5 3,5 14 8 29 15 E 1021,0 - 0,0
11.12.2018 19:00:00 9,1 4,3 17 9 27 15 ENE 1021,0 10 0,0
11.12.2018 18:00:00 9,2 4,0 11 6 19 10 ENE 1021,1 - 0,0
11.12.2018 17:00:00 9,6 3,6 8 5 21 12 ENE 1021,5 - 0,0
11.12.2018 16:00:00 10,6 3,4 13 7 27 15 E 1021,1 - 0,0
11.12.2018 15:00:00 11,2 3,9 10 6 27 15 E 1021,6 - 0,0
11.12.2018 14:00:00 10,7 3,7 16 9 40 22 ESE 1021,9 - 0,0
11.12.2018 13:00:00 10,0 4,6 17 9 35 19 E 1022,8 10 0,0
11.12.2018 12:00:00 8,4 5,3 11 6 28 15 E 1024,2 - 0,0
11.12.2018 11:00:00 7,7 5,7 12 7 31 17 E 1025,0 - 0,0
11.12.2018 10:00:00 5,7 4,3 13 7 28 15 E 1024,9 15 0,0
11.12.2018 09:00:00 5,7 4,3 14 7 30 16 E 1024,7 - 0,0
11.12.2018 08:00:00 5,7 4,3 13 7 31 17 ESE 1024,6 - 0,0
11.12.2018 07:00:00 6,0 5,0 15 8 27 15 E 1024,8 13 0,0
11.12.2018 06:00:00 6,0 5,1 13 7 23 12 E 1025,4 - 0,0
11.12.2018 05:00:00 6,6 5,9 13 7 24 13 E 1026,3 - 0,0
11.12.2018 04:00:00 6,4 5,7 8 4 15 8 E 1027,2 13 0,0
11.12.2018 03:00:00 6,5 5,8 8 4 17 9 ENE 1027,8 - 0,0
11.12.2018 02:00:00 6,4 5,7 11 6 16 9 ENE 1028,3 - 0,0
11.12.2018 01:00:00 4,6 3,6 6 3 12 7 E 1028,7 13 0,0
11.12.2018 00:00:00 4,8 3,8 9 5 10 6 NE 1029,5 - 0,0
10.12.2018 23:00:00 5,0 3,8 6 3 10 6 E 1029,6 - 0,0
10.12.2018 22:00:00 5,4 4,0 8 4 10 5 ESE 1030,1 10 0,0
10.12.2018 21:00:00 6,0 4,5 6 4 11 6 NE 1030,5 - 0,0
10.12.2018 20:00:00 6,6 4,8 6 3 10 6 ESE 1030,8 - 0,0
10.12.2018 19:00:00 7,8 5,4 8 4 14 8 NE 1030,8 10 0,0
10.12.2018 18:00:00 9,2 6,6 11 6 14 8 N 1031,1 - 0,0
10.12.2018 17:00:00 11,1 7,0 3 1 11 6 E 1031,2 - 0,0
10.12.2018 16:00:00 12,3 7,6 8 4 16 9 ENE 1031,2 13 0,0
10.12.2018 15:00:00 13,2 7,0 10 5 18 10 NW 1031,6 - 0,0
10.12.2018 14:00:00 14,4 7,9 8 5 20 11 NNW 1032,2 - 0,0
10.12.2018 13:00:00 13,7 8,3 12 6 20 11 NNW 1032,9 8 0,0
10.12.2018 12:00:00 13,0 7,7 10 6 16 9 NW 1033,4 - 0,0
10.12.2018 11:00:00 12,9 8,2 9 5 19 10 NNW 1033,8 - 0,0
10.12.2018 10:00:00 11,5 7,6 13 7 24 13 NW 1033,8 10 0,0
10.12.2018 09:00:00 11,1 7,8 15 8 23 13 NW 1033,6 - 0,0
10.12.2018 08:00:00 10,7 7,2 16 9 28 15 NW 1033,2 - 0,0
10.12.2018 07:00:00 10,7 7,8 18 10 25 14 WNW 1033,0 13 0,0
10.12.2018 06:00:00 11,0 7,9 18 10 27 15 NW 1033,0 - 0,0
10.12.2018 05:00:00 10,9 7,8 19 10 29 16 WNW 1033,0 - 0,0
10.12.2018 04:00:00 11,4 8,8 21 11 32 18 NW 1033,2 10 0,0
10.12.2018 03:00:00 11,0 8,9 14 8 23 12 WNW 1033,3 - 0,0
10.12.2018 02:00:00 11,9 8,9 17 9 37 20 NW 1033,4 - 0,0
10.12.2018 01:00:00 11,8 8,6 19 10 32 18 WNW 1033,4 10 0,0
10.12.2018 00:00:00 11,7 8,0 24 13 39 21 WNW 1033,3 - 0,0
09.12.2018 23:00:00 11,9 8,0 28 15 42 23 WNW 1033,1 - 0,0
09.12.2018 22:00:00 12,1 8,8 27 14 41 22 WNW 1032,5 10 0,0
09.12.2018 21:00:00 12,1 8,8 28 15 46 25 WNW 1032,2 - 0,0
09.12.2018 20:00:00 12,3 9,7 33 18 46 25 WNW 1031,7 - 0,0
09.12.2018 19:00:00 11,7 9,3 37 20 64 35 NW 1031,3 7 0,2
09.12.2018 18:00:00 12,8 8,7 37 20 58 31 WNW 1030,1 - 0,0
09.12.2018 17:00:00 13,0 8,3 40 22 55 30 W 1029,6 - 0,0
09.12.2018 16:00:00 13,5 8,8 36 19 66 36 WNW 1029,0 7 0,0
09.12.2018 15:00:00 13,8 8,6 37 20 59 32 WNW 1028,7 - 0,0
09.12.2018 14:00:00 13,8 9,6 36 19 52 28 W 1028,2 - 0,0
09.12.2018 13:00:00 13,5 8,8 40 22 53 28 W 1028,3 7 0,0
09.12.2018 12:00:00 13,6 9,2 37 20 61 33 WNW 1028,5 - 0,0

tt = Température de l'air
td = dewpoint
ff = Vitesse du vent
fx = gusts
dd = Direction du vent
ppp = reduced air pressure
vv = visibility
rr = Quantités de précipitations

stations d'obs. à proximité